Lawrence, MA

1:40 PM EST on November 21, 2017 (GMT -0500)
Lawrence Municipal

Weather History for KLWM - December, 2013

Change the Weather History Date:

Wednesday, December 25, 2013

  Actual Average Record
Temperature  
Mean Temperature 18 °F -  
Max Temperature 24 °F 35 °F 63 °F (2015)
Min Temperature 12 °F 17 °F -10 °F (1980)
Degree Days  
Heating Degree Days 47    
Moisture  
Dew Point 1 °F    
Average Humidity 47    
Maximum Humidity 59    
Minimum Humidity 35    
Precipitation  
Precipitation 0.00 in - - ()
Sea Level Pressure  
Sea Level Pressure 30.47 in    
Wind  
Wind Speed 9 mph (NW)    
Max Wind Speed 16 mph    
Max Gust Speed 29 mph    
Visibility 10 miles    
Events      
Averages and records for this station are not official NWS values.
T = Trace of Precipitation, MM = Missing Value Source: NWS Daily Summary

Daily Weather History Graph

Daily Weather History Graph

Search for Another Location

Airport or City:

Trip Planner

Search our weather history database for the weather conditions in past years. The results will help you decide how hot, cold, wet, or windy it might be!

Date:

Astronomy

Dec. 25, 2013 Rise Set
Actual Time 7:13 AM EST 4:16 PM EST
Civil Twilight 6:41 AM EST 4:48 PM EST
Nautical Twilight 6:05 AM EST 5:24 PM EST
Astronomical Twilight 5:31 AM EST 5:58 PM EST
Moon No Moon Rise 11:25 AM EST (12/25)
Length of Visible Light 10h 07m
Length of Day
9h 02m
Waning Gibbous, 49% of the Moon is Illuminated
Dec 25
Waning Gibbous
Jan 1
New
Jan 7
First Quarter
Jan 15
Full
Jan 24
Last Quarter

Hourly Weather History & Observations

Time (EST) Temp. Windchill Dew Point Humidity Pressure Visibility Wind Dir Wind Speed Gust Speed Precip Events Conditions
12:54 AM 24.1 °F 12.5 °F 8.1 °F 51% 30.23 in 10.0 mi NW 12.7 mph 26.5 mph N/A   Overcast
1:54 AM 21.9 °F 9.2 °F 3.9 °F 46% 30.26 in 10.0 mi WNW 13.8 mph 24.2 mph N/A   Clear
2:54 AM 21.0 °F 7.1 °F 3.9 °F 48% 30.28 in 10.0 mi WNW 16.1 mph 28.8 mph N/A   Clear
3:54 AM 17.1 °F 5.0 °F 5.0 °F 59% 30.33 in 10.0 mi NNW 10.4 mph 19.6 mph N/A   Clear
4:54 AM 16.0 °F 2.3 °F 3.0 °F 57% 30.36 in 10.0 mi NW 12.7 mph 18.4 mph N/A   Partly Cloudy
5:54 AM 14.0 °F 1.2 °F -0.0 °F 54% 30.38 in 10.0 mi NW 10.4 mph - N/A   Clear
6:54 AM 12.9 °F -1.6 °F -2.0 °F 51% 30.44 in 10.0 mi WNW 12.7 mph 24.2 mph N/A   Clear
7:54 AM 12.0 °F -4.0 °F -4.0 °F 49% 30.46 in 10.0 mi NW 15.0 mph 23.0 mph N/A   Clear
8:54 AM 12.9 °F -1.6 °F -4.0 °F 47% 30.50 in 10.0 mi NW 12.7 mph - N/A   Clear
9:54 AM 15.1 °F 2.5 °F -2.9 °F 45% 30.52 in 10.0 mi NW 10.4 mph 17.3 mph N/A   Clear
10:54 AM 16.0 °F 4.4 °F -2.9 °F 43% 30.51 in 10.0 mi NW 9.2 mph - N/A   Clear
11:54 AM 19.0 °F 8.2 °F -2.9 °F 38% 30.48 in 10.0 mi NNW 9.2 mph - N/A   Clear
12:54 PM 19.9 °F 12.1 °F -2.0 °F 38% 30.50 in 10.0 mi West 5.8 mph - N/A   Clear
1:54 PM 21.0 °F 14.6 °F -0.9 °F 38% 30.49 in 10.0 mi North 4.6 mph - N/A   Clear
2:54 PM 21.9 °F - -2.0 °F 35% 30.51 in 10.0 mi Calm Calm - N/A   Clear
3:54 PM 21.0 °F - -2.0 °F 36% 30.54 in 10.0 mi Calm Calm - N/A   Clear
4:54 PM 21.0 °F - 1.0 °F 42% 30.55 in 10.0 mi Calm Calm - N/A   Clear
5:54 PM 21.0 °F - -0.0 °F 40% 30.56 in 10.0 mi Calm Calm - N/A   Clear
6:54 PM 21.0 °F 16.2 °F 1.9 °F 44% 30.57 in 10.0 mi SSW 3.5 mph - N/A   Clear
7:54 PM 19.0 °F - 3.0 °F 50% 30.56 in 10.0 mi Calm Calm - N/A   Clear
8:54 PM 19.0 °F - 3.9 °F 52% 30.56 in 10.0 mi Calm Calm - N/A   Clear
9:54 PM 19.0 °F - 3.0 °F 50% 30.55 in 10.0 mi Calm Calm - N/A   Clear
10:54 PM 19.9 °F - 1.9 °F 46% 30.54 in 10.0 mi Calm Calm - N/A   Scattered Clouds
11:01 PM 19.9 °F - 1.9 °F 46% 30.52 in 10.0 mi Calm Calm - N/A   Mostly Cloudy
11:22 PM 19.0 °F - 3.0 °F 50% 30.52 in 10.0 mi Calm Calm - N/A   Partly Cloudy
11:54 PM 19.9 °F - 7.0 °F 57% 30.53 in 10.0 mi Calm Calm - N/A   Mostly Cloudy